Flag for Norway Weather past 2 weeks in Halden, Norway

Now
35 °F

Chilly.


Feels Like: 32 °F
Forecast: 35 / 51 °F
Wind: 3 mph from Northeast

Location: Stromtangen Fyr

Current Time: Apr 27, 2015 at 8:41:26 AM

Latest Report: Apr 27, 2015 at 7:00 AM


Visibility: N/A

Pressure: 29.62 "Hg

Humidity: 94%

Dew point: 33 °F

Location of HaldenLocation

Historic Weather in Halden — Graph

°F

Halden temperature yesterday

Maximum temperature yesterday: 47 °F (at 4:00 PM)
Minimum temperature yesterday: 43 °F (at 6:00 AM)
Average temperature yesterday: 45 °F

Past Weeks' High & Low Weather Summary

 TemperatureHumidityPressure
High62 °F (Apr 19, 8:00 PM)95% (Apr 14, 2:00 PM)30.36 "Hg (Apr 14, 2:00 PM)
Low35 °F (Apr 27, 7:00 AM)23% (Apr 23, 4:00 PM)29.41 "Hg (Apr 25, 7:00 PM)
Average47 °F66%29.90 "Hg
* Reported Apr 12 7:00 AM — Apr 27 7:00 AM, Halden, Weather by CustomWeather, © 2015

Note: Actual official high and low records may vary slightly from our data, if they occured in-between our weather recording intervals... More about our weather records

Advertising

Halden weather history for previous 24 hours

 ConditionsComfort  
Time TempWeatherWind HumidityBarometerVisibility
7:00 AM
Mon, Apr 27
35 °FChilly.3 mph94%29.62 "HgN/A
6:00 AM36 °FChilly.2 mph92%29.62 "HgN/A
5:00 AM37 °FChilly.1 mph92%29.62 "HgN/A
4:00 AM39 °FChilly.3 mph85%29.62 "HgN/A
3:00 AM41 °FQuite cool.5 mph81%29.62 "HgN/A
2:00 AM42 °FQuite cool.3 mph84%29.62 "HgN/A
1:00 AM42 °FQuite cool.3 mph88%29.62 "HgN/A
12:00 AM46 °FCool.3 mph78%29.61 "HgN/A
11:00 PM
Sun, Apr 26
45 °FCool.3 mph86%29.61 "HgN/A
10:00 PM46 °FCool.8 mph86%29.61 "HgN/A
9:00 PM46 °FCool.8 mph84%29.61 "HgN/A
8:00 PM46 °FCool.9 mph82%29.61 "HgN/A
7:00 PM46 °FCool.8 mph78%29.61 "HgN/A
6:00 PM47 °FCool.10 mph77%29.60 "HgN/A
5:00 PM47 °FCool.10 mph76%29.61 "HgN/A
4:00 PM47 °FCool.12 mph74%29.60 "HgN/A
3:00 PM46 °FCool.12 mph77%29.61 "HgN/A
2:00 PM46 °FCool.10 mph74%29.61 "HgN/A
1:00 PM45 °FCool.10 mph74%29.60 "HgN/A
12:00 PM44 °FQuite cool.12 mph73%29.59 "HgN/A
11:00 AM44 °FQuite cool.10 mph73%29.58 "HgN/A
10:00 AM43 °FQuite cool.12 mph73%29.57 "HgN/A
9:00 AM43 °FQuite cool.13 mph76%29.56 "HgN/A
8:00 AM43 °FQuite cool.14 mph75%29.55 "HgN/A
Weather by CustomWeather, © 2015

See weather overviewHow to use our weather pages